This is the latest recevied weather packets stored in our database for station/object N0HOT. If no packets are shown the sender has not sent any weather packets the latest 10 day(s).
| Time | Temp. | Humidity | Pressure | Rain* | Wind** | Luminosity | Snow |
|---|---|---|---|---|---|---|---|
| 1777404728 | 15° C | 41% | 1014.3 hPa | 0 mm | - | 710 W/m² | - |
| 1777404424 | 15° C | 41% | 1014.3 hPa | 0 mm | - | 598 W/m² | - |
| 1777403819 | 13.89° C | 42% | 1013.9 hPa | 0 mm | - | 793 W/m² | - |
| 1777401994 | 13.33° C | 47% | 1014.3 hPa | 0 mm | - | 223 W/m² | - |
| 1777400781 | 13.89° C | 46% | 1014.3 hPa | 0 mm | - | 193 W/m² | - |
| 1777399871 | 13.89° C | 43% | 1013.9 hPa | 0 mm | - | 566 W/m² | - |
| 1777399569 | 13.89° C | 44% | 1014.3 hPa | 0 mm | - | 495 W/m² | - |
| 1777398963 | 13.89° C | 42% | 1013.9 hPa | 0 mm | - | 761 W/m² | - |
| 1777397750 | 13.89° C | 43% | 1013.9 hPa | 0 mm | - | 774 W/m² | - |
| 1777397446 | 13.33° C | 41% | 1014.3 hPa | 0 mm | - | 721 W/m² | - |
| 1777397142 | 13.33° C | 40% | 1013.9 hPa | 0 mm | - | 698 W/m² | - |
| 1777396839 | 13.33° C | 46% | 1013.9 hPa | 0 mm | - | 658 W/m² | - |
| 1777396535 | 13.33° C | 42% | 1014.3 hPa | 0 mm | - | 710 W/m² | - |
| 1777396233 | 12.78° C | 46% | 1014.3 hPa | 0 mm | - | 720 W/m² | - |
| 1777395928 | 12.78° C | 46% | 1014.3 hPa | 0 mm | - | 516 W/m² | - |
| 1777395624 | 12.78° C | 45% | 1013.9 hPa | 0 mm | - | 540 W/m² | - |
| 1777395321 | 12.78° C | 47% | 1014.3 hPa | 0 mm | - | 516 W/m² | - |
| 1777394411 | 12.78° C | 46% | 1014.3 hPa | 0 mm | - | 475 W/m² | - |
| 1777392895 | 12.22° C | 49% | 1014.3 hPa | 0 mm | - | 712 W/m² | - |
| 1777391987 | 11.67° C | 51% | 1014.3 hPa | 0 mm | - | 462 W/m² | - |
| 1777391076 | 11.67° C | 52% | 1014.6 hPa | 0 mm | - | 450 W/m² | - |
| 1777390165 | 11.11° C | 52% | 1014.6 hPa | 0 mm | - | 566 W/m² | - |
| 1777389558 | 10.56° C | 54% | 1014.6 hPa | 0 mm | - | 651 W/m² | - |
| 1777388953 | 10° C | 57% | 1014.3 hPa | 0 mm | - | 591 W/m² | - |
| 1777388346 | 10° C | 57% | 1014.3 hPa | 0 mm | - | 514 W/m² | - |
* Rain latest hour (hover to see other rain measurements)
** Current wind speed in m/s (hover to see current wind gust speed)